Bluefield, WV

2:59 PM EDT on June 25, 2017 (GMT -0400)
Mercer County

Weather History for KBLF - June, 2014

Change the Weather History Date:

Tuesday, June 3, 2014

  Actual Average Record
Temperature  
Mean Temperature 70 °F 67 °F  
Max Temperature 76 °F 76 °F 83 °F (2010)
Min Temperature 63 °F 58 °F 44 °F (1969)
Degree Days  
Heating Degree Days 0 2  
Month to date heating degree days 0 6  
Since 1 June heating degree days 0 6  
Since 1 July heating degree days 4652 4572  
Cooling Degree Days 5 4  
Month to date cooling degree days 14 11  
Year to date cooling degree days 143 102  
Since 1 June cooling degree days 14 11  
Growing Degree Days 19 (Base 50)    
Moisture  
Dew Point 59 °F    
Average Humidity 74    
Maximum Humidity 87    
Minimum Humidity 60    
Precipitation  
Precipitation 0.01 in 0.15 in 1.31 in (1979)
Month to date precipitation 0.01 0.45  
Year to date precipitation 11.67 17.27  
Snow  
Snow 0.00 in - - ()
Month to date snowfall 0.0  
Since 1 June snowfall 0.0  
Since 1 July snowfall 47.0  
Snow Depth 0.00 in    
Sea Level Pressure  
Sea Level Pressure 30.08 in    
Wind  
Wind Speed 7 mph (West)    
Max Wind Speed 14 mph    
Max Gust Speed 18 mph    
Visibility 10 miles    
Events Rain    
T = Trace of Precipitation, MM = Missing Value Source: NWS Daily Summary

Daily Weather History Graph

Daily Weather History Graph

Search for Another Location

Airport or City:

Trip Planner

Search our weather history database for the weather conditions in past years. The results will help you decide how hot, cold, wet, or windy it might be!

Date:

Astronomy

Jun. 03, 2014 Rise Set
Actual Time 6:05 AM EDT 8:41 PM EDT
Civil Twilight 5:34 AM EDT 9:11 PM EDT
Nautical Twilight 4:56 AM EDT 9:49 PM EDT
Astronomical Twilight 4:14 AM EDT 10:32 PM EDT
Moon 11:22 AM EDT (6/3) 12:12 AM EDT (6/3)
Length of Visible Light 15h 36m
Length of Day
14h 35m
Waxing Crescent, 30% of the Moon is Illuminated
Jun 3
Waxing Crescent
Jun 5
First Quarter
Jun 13
Full
Jun 19
Last Quarter
Jun 27
New

Hourly Weather History & Observations

Time (EDT) Temp. Dew Point Humidity Pressure Visibility Wind Dir Wind Speed Gust Speed Precip Events Conditions
12:52 AM 68.0 °F 55.9 °F 65% 30.08 in 10.0 mi WSW 5.8 mph - N/A   Mostly Cloudy
1:52 AM 66.0 °F 55.0 °F 68% 30.07 in 10.0 mi West 4.6 mph - N/A   Clear
2:52 AM 66.0 °F 55.0 °F 68% 30.06 in 10.0 mi West 6.9 mph - N/A   Overcast
3:52 AM 64.9 °F 55.0 °F 70% 30.05 in 10.0 mi WSW 5.8 mph - N/A   Clear
4:52 AM 63.0 °F 55.0 °F 75% 30.07 in 10.0 mi West 4.6 mph - N/A   Clear
5:52 AM 64.0 °F 55.0 °F 73% 30.06 in 10.0 mi WSW 5.8 mph - N/A   Scattered Clouds
6:52 AM 64.9 °F 55.9 °F 73% 30.07 in 10.0 mi WSW 4.6 mph - N/A   Overcast
7:50 AM 66.2 °F 57.2 °F 73% 30.18 in 10.0 mi West 8.1 mph - N/A   Mostly Cloudy
7:52 AM 66.0 °F 57.0 °F 73% 30.08 in 10.0 mi West 8.1 mph - N/A   Mostly Cloudy
8:17 AM 66.0 °F 57.0 °F 73% 30.18 in 10.0 mi West 6.9 mph - N/A   Mostly Cloudy
8:37 AM 66.0 °F 57.0 °F 73% 30.18 in 10.0 mi WSW 6.9 mph - N/A   Overcast
8:52 AM 66.9 °F 57.9 °F 73% 30.08 in 10.0 mi West 8.1 mph - N/A   Overcast
9:52 AM 68.0 °F 57.9 °F 70% 30.08 in 10.0 mi West 9.2 mph - N/A   Overcast
10:52 AM 64.9 °F 60.1 °F 84% 30.09 in 10.0 mi West 9.2 mph - 0.00 in Rain Light Rain
11:34 AM 64.9 °F 60.1 °F 84% 30.18 in 10.0 mi West 9.2 mph - 0.01 in Rain Light Rain
11:52 AM 64.9 °F 60.1 °F 84% 30.09 in 7.0 mi West 6.9 mph - 0.01 in Rain Light Rain
12:21 PM 64.9 °F 60.1 °F 84% 30.18 in 10.0 mi West 6.9 mph - 0.00 in   Overcast
12:52 PM 66.0 °F 61.0 °F 84% 30.08 in 10.0 mi West 11.5 mph 17.3 mph 0.00 in   Overcast
1:52 PM 66.9 °F 61.0 °F 81% 30.08 in 10.0 mi WSW 8.1 mph - N/A   Overcast
2:30 PM 70.0 °F 61.0 °F 73% 30.16 in 10.0 mi West 9.2 mph - N/A   Overcast
2:45 PM 70.0 °F 61.0 °F 73% 30.15 in 10.0 mi West 8.1 mph - N/A   Overcast
2:52 PM 69.1 °F 61.0 °F 75% 30.06 in 10.0 mi WNW 6.9 mph - N/A   Overcast
3:07 PM 70.0 °F 61.0 °F 73% 30.15 in 10.0 mi WNW 6.9 mph - N/A   Overcast
3:19 PM 70.0 °F 62.1 °F 76% 30.15 in 10.0 mi Variable 6.9 mph - N/A   Overcast
3:52 PM 72.0 °F 61.0 °F 68% 30.04 in 10.0 mi WNW 5.8 mph - N/A   Mostly Cloudy
4:12 PM 73.9 °F 61.0 °F 64% 30.13 in 10.0 mi WNW 9.2 mph - N/A   Mostly Cloudy
4:36 PM 75.0 °F 60.1 °F 60% 30.12 in 10.0 mi NW 5.8 mph - N/A   Mostly Cloudy
4:43 PM 73.9 °F 60.1 °F 62% 30.12 in 10.0 mi West 10.4 mph - N/A   Mostly Cloudy
4:52 PM 75.0 °F 60.1 °F 60% 30.02 in 10.0 mi Variable 6.9 mph - N/A   Scattered Clouds
5:52 PM 73.9 °F 60.1 °F 62% 30.00 in 10.0 mi West 8.1 mph - N/A   Scattered Clouds
6:52 PM 75.0 °F 61.0 °F 62% 29.98 in 10.0 mi West 8.1 mph - N/A   Scattered Clouds
7:52 PM 73.0 °F 61.0 °F 66% 29.99 in 10.0 mi WNW 4.6 mph - N/A   Clear
8:52 PM 69.1 °F 61.0 °F 75% 29.99 in 10.0 mi West 5.8 mph - N/A   Clear
9:52 PM 68.0 °F 61.0 °F 78% 30.00 in 10.0 mi West 5.8 mph - N/A   Clear
10:52 PM 66.9 °F 61.0 °F 81% 30.01 in 10.0 mi West 3.5 mph - N/A   Clear
11:52 PM 66.0 °F 62.1 °F 87% 29.99 in 10.0 mi West 5.8 mph - N/A   Clear